Dewpoint
46 46 46 46 46 46 46 46 46 46 47 48 49 51 52 53 53 46 34 33 45 55 49 16 5 9 16 18 17 17 14 14 14 14 15 45 47 55 56 52 54 52 52 55 62
46 46 46 46 45 46 46 46 46 46 47 48 49 51 52 53 50 43 43 55 56 49 8 7 1 5 13 15 15 14 15 15 17 16 17 41 49 52 53 50 50 52 56 62 62
45 45 45 45 46 46 46 46 46 47 47 48 50 51 53 53 43 36 56 55 55 46 15 11 9 9 14 15 16 16 14 16 17 20 25 47 49 50 51 49 52 51 59 62 62
45 45 44 45 46 46 46 47 47 48 48 49 50 52 53 51 -12 22 56 56 56 38 26 16 10 8 14 12 13 16 18 17 17 20 38 48 50 48 46 50 52 55 60 61 61
44 44 44 45 46 47 47 47 48 48 48 49 50 52 49 39 38 34 57 55 41 32 26 21 11 10 12 12 12 13 13 17 20 23 18 49 50 49 49 57 54 57 60 60 61
44 43 44 45 46 47 47 47 48 48 49 50 50 51 46 23 20 32 42 37 31 29 25 22 14 12 11 9 9 12 10 12 14 18 25 51 52 51 52 60 58 57 58 59 59
43 44 45 45 46 46 47 48 48 49 49 50 51 50 44 28 30 26 26 17 14 13 10 14 15 12 14 12 17 15 12 13 15 19 18 52 50 50 52 59 59 57 57 57 58
43 45 46 46 47 48 48 49 49 49 49 50 52 48 37 37 36 33 28 22 15 14 11 13 14 18 16 15 12 11 15 11 14 20 19 34 44 52 52 58 57 57 56 56 55
43 45 46 46 47 48 48 49 49 49 50 52 46 44 38 44 32 34 19 11 13 12 12 10 16 14 13 10 8 12 9 12 12 18 19 25 45 52 53 56 55 54 53 53 51
44 45 46 46 46 47 48 49 48 48 49 48 43 36 34 20 24 21 20 11 7 14 14 15 13 11 11 9 4 7 10 21 12 15 22 26 37 49 52 51 49 48 48 47 51
44 45 46 46 47 47 46 39 34 32 36 39 36 32 26 35 31 16 18 13 12 10 9 14 8 8 9 10 10 8 6 5 5 6 18 21 34 47 48 46 46 45 44 50 55
45 45 45 46 46 48 40 35 36 39 37 39 37 32 35 36 32 30 17 12 13 8 10 13 9 10 11 12 9 9 7 5 3 4 5 7 21 45 48 46 46 45 46 50 54
45 45 45 45 47 43 37 37 39 41 38 35 36 30 27 31 30 25 22 16 12 9 7 7 10 14 12 11 10 7 5 5 3 3 4 6 8 43 46 48 47 47 48 51 53
45 45 44 46 40 39 37 38 41 42 33 29 28 26 24 21 18 21 20 19 15 10 11 9 9 9 10 11 10 7 7 7 5 5 2 16 14 39 44 46 47 48 48 50 52
44 44 45 45 39 39 38 39 42 44 7 28 22 24 20 16 21 19 19 19 16 14 11 10 10 9 8 8 7 8 11 8 6 3 4 7 22 26 45 45 46 48 50 51 51
44 44 45 39 39 40 39 41 44 23 3 21 23 21 20 22 22 19 18 20 17 16 13 11 12 10 8 10 10 9 9 7 8 7 3 3 6 10 42 43 46 48 51 51 50
44 43 41 41 36 37 41 42 29 12 22 20 19 20 19 18 17 19 19 15 13 10 11 10 9 10 10 8 11 8 8 6 1 1 2 3 6 5 17 39 44 44 49 50 50
43 42 39 41 39 39 42 36 16 25 22 22 20 19 19 21 21 22 15 20 25 24 12 10 10 10 11 9 7 8 8 12 2 3 2 4 3 3 9 27 40 40 47 50 48
41 35 38 37 36 40 40 30 26 19 16 17 19 20 21 21 22 23 25 23 23 23 23 23 18 23 22 19 9 10 7 12 12 15 10 9 7 7 12 12 19 35 41 48 47
34 34 36 33 37 41 36 30 23 17 19 18 19 20 19 19 20 21 25 23 22 22 27 24 25 27 24 22 21 12 12 10 16 7 6 7 4 4 8 11 14 17 34 45 44
32 30 34 32 39 34 28 25 21 15 19 19 19 20 19 18 19 19 25 16 16 21 21 19 27 27 24 21 21 22 20 20 16 15 6 4 5 12 11 15 14 12 26 41 44
30 23 32 34 24 29 26 22 22 13 18 14 16 17 19 20 18 20 15 12 16 18 17 21 22 23 24 25 24 21 23 24 22 20 19 14 8 13 14 14 15 16 18 35 41
28 27 34 31 20 21 23 17 13 11 12 13 12 13 15 16 14 14 12 15 13 18 21 21 20 21 18 17 25 23 22 22 25 27 22 17 15 26 27 26 24 21 20 19 30
28 19 23 26 25 21 21 19 17 17 14 13 16 16 13 12 12 11 12 13 16 18 24 23 22 22 20 20 21 20 18 16 20 24 23 22 24 22 25 26 26 28 30 28 37
26 19 22 12 18 20 20 19 17 15 15 16 16 16 12 10 11 11 12 12 13 19 16 16 17 16 16 18 19 18 16 14 13 17 20 21 20 21 24 30 32 30 29 34 37
21 23 28 24 22 18 21 19 18 16 15 14 14 15 14 13 14 11 12 11 10 14 12 15 10 8 7 14 17 16 15 13 11 9 12 18 19 26 31 30 31 26 24 29 36
29 30 25 22 21 17 18 18 17 19 19 16 16 14 13 16 16 15 14 15 14 12 11 12 12 10 5 10 8 6 9 7 4 6 10 12 16 28 28 29 25 20 20 21 29
Lifted_Index
16 16 16 16 16 15 15 15 14 14 14 14 14 13 12 11 10 9 9 10 10 11 11 11 10 10 8 6 5 6 5 3 3 3 2 1 -1 -2 -3 -2 -2 -2 -2 -2 -2
16 16 16 16 16 16 15 15 14 14 14 14 14 13 12 11 9 8 9 10 10 11 11 10 10 9 8 6 5 5 5 4 4 4 3 1 -1 -2 -2 -2 -1 -2 -2 -3 -3
17 17 17 17 16 16 16 15 15 14 14 14 13 12 11 10 8 7 9 9 10 10 10 10 9 9 7 6 5 4 4 4 4 4 4 1 -0 -1 -1 -1 -1 -2 -3 -4 -4
17 17 17 17 17 16 16 16 15 15 14 14 13 12 11 9 7 8 9 9 9 10 10 9 9 8 7 6 5 4 4 4 4 5 4 1 -0 -1 -1 -1 -1 -2 -4 -5 -5
18 18 18 17 17 16 16 15 15 15 14 14 13 12 10 8 7 8 9 9 9 9 9 8 8 8 7 6 6 5 4 4 4 5 4 2 -0 -1 -2 -2 -2 -3 -4 -5 -5
18 18 18 18 17 16 16 15 15 14 14 13 12 11 9 8 8 9 10 10 9 9 8 8 8 8 8 7 7 6 5 4 4 4 3 1 -1 -1 -2 -3 -3 -3 -3 -4 -5
18 18 18 17 17 16 15 14 14 14 13 13 11 10 8 8 9 10 10 10 10 9 9 8 8 8 8 7 7 6 5 4 3 3 3 1 -1 -2 -2 -3 -3 -3 -3 -4 -4
18 18 17 17 16 15 14 13 13 13 13 12 11 9 8 8 9 9 9 9 9 9 9 9 8 8 8 7 6 6 5 4 3 3 2 1 -1 -2 -3 -3 -3 -3 -3 -4 -4
18 17 17 17 16 14 13 12 11 11 11 11 10 9 8 8 8 9 9 9 9 9 9 9 8 7 6 5 4 4 4 4 3 2 2 2 -0 -2 -3 -4 -4 -3 -3 -2 -2
17 17 17 16 15 13 12 11 10 9 9 9 9 8 8 7 8 8 9 9 9 9 8 8 7 6 5 4 3 3 4 4 3 3 2 2 -0 -2 -3 -4 -3 -3 -2 -1 -1
17 17 17 16 14 13 12 12 11 9 8 8 8 7 7 7 7 8 8 8 8 7 6 6 5 4 4 4 4 4 4 4 4 3 2 2 0 -2 -3 -3 -3 -2 -2 -1 -1
17 17 16 16 14 12 12 12 12 10 8 8 8 7 7 7 7 7 8 8 7 6 5 5 4 4 5 5 5 4 4 4 4 3 2 1 0 -2 -3 -3 -3 -3 -2 -2 -2
16 16 16 15 14 12 12 12 12 10 7 6 7 7 7 7 7 7 7 7 6 5 5 5 5 5 5 5 5 5 4 4 4 3 2 2 1 -1 -3 -3 -3 -3 -2 -2 -2
16 16 16 15 13 12 12 12 12 9 6 5 6 7 7 7 7 7 7 7 6 5 5 5 5 5 5 5 5 5 4 4 4 4 3 2 1 -0 -2 -3 -3 -3 -2 -2 -2
16 16 15 14 13 13 13 12 10 7 4 4 6 6 7 7 7 7 7 7 6 6 6 5 5 5 5 6 5 5 5 5 4 4 3 2 2 1 -1 -2 -2 -2 -2 -2 -2
15 15 14 13 13 13 12 10 7 5 4 5 6 6 6 6 6 6 6 6 6 6 5 6 6 6 6 6 6 5 5 4 4 3 2 2 2 1 -0 -1 -2 -2 -3 -3 -3
14 13 12 12 13 13 10 7 5 5 5 6 6 6 6 6 6 5 5 6 6 5 5 5 5 6 6 5 5 5 4 3 2 1 2 2 2 2 1 0 -1 -2 -3 -3 -3
13 12 10 11 11 10 8 6 5 5 6 6 6 6 5 6 5 5 5 5 6 5 5 4 4 5 6 5 5 4 4 2 1 1 2 2 2 2 3 2 1 -1 -2 -3 -3
11 10 9 9 9 7 5 4 5 6 6 6 5 5 5 5 5 4 4 5 5 6 5 5 4 5 5 5 4 4 4 3 2 2 2 2 2 2 3 3 2 1 -1 -2 -3
9 8 8 8 7 5 4 4 5 6 6 5 5 5 5 5 4 3 4 4 5 6 6 5 5 5 5 4 4 3 3 3 2 2 2 2 3 3 3 4 3 2 1 -1 -3
8 8 7 7 6 4 4 4 5 7 7 6 5 5 5 5 4 3 3 5 6 6 5 5 5 4 4 3 3 2 2 2 2 2 1 2 3 4 4 4 4 3 1 -1 -2
8 7 7 7 6 5 5 5 6 7 7 7 6 6 6 6 5 4 4 6 7 6 5 4 4 3 3 3 2 2 1 1 1 2 2 2 3 4 5 4 4 3 2 0 -1
7 7 7 7 6 6 6 6 7 8 8 8 8 8 8 7 6 5 5 7 7 6 5 4 3 2 2 2 2 1 1 1 1 1 1 2 3 4 4 4 3 3 3 1 0
7 7 7 7 7 6 6 6 7 8 8 8 8 9 8 8 7 7 6 7 7 7 6 5 4 3 2 2 2 2 2 2 1 1 1 2 2 3 3 3 3 3 3 2 1
7 7 7 7 7 7 7 6 7 8 8 9 9 9 9 8 8 8 7 7 8 8 8 6 5 4 4 4 4 3 3 2 2 2 1 2 2 3 3 3 3 3 3 2 1
8 8 8 7 7 7 6 6 7 7 8 8 8 9 9 8 8 8 9 8 8 8 8 7 6 5 5 5 5 4 3 3 3 3 3 3 3 3 3 3 3 3 2 1 0
8 8 8 7 7 7 6 6 7 7 7 8 8 8 9 9 9 9 9 9 9 8 7 7 7 5 5 5 5 4 4 4 4 4 4 4 4 4 3 3 3 2 2 1 -0